Theta_e
303 303 303 303 304 304 304 305 305 306 307 307 308 308 309 308 308 305 303 305 303 303 306 307 308 306 306 305 302 306 304 306 305 299 299 297 297 297 295 295 292 294 294 292 294 290 286 298 296 293 293 297 296 296
303 303 303 303 304 304 304 305 305 305 307 307 308 308 309 309 308 305 302 304 305 302 304 307 310 312 311 309 308 307 306 305 306 301 300 301 298 299 294 289 296 294 296 295 294 292 297 297 295 296 296 295 295 293
303 303 303 303 303 304 304 304 304 305 306 308 308 308 309 309 308 306 303 303 305 306 309 310 310 313 315 313 313 307 308 309 309 307 304 301 296 299 295 294 294 293 294 294 293 293 294 295 296 295 295 294 293 293
302 302 303 303 304 304 303 304 304 306 306 307 308 308 308 308 307 306 304 304 304 306 306 308 314 313 317 315 311 312 313 310 309 307 303 300 296 298 294 295 295 295 294 292 290 293 294 294 295 293 293 292 291 291
302 302 303 303 303 303 303 304 305 306 307 307 308 308 308 308 307 307 306 306 305 305 305 307 312 314 315 315 309 312 311 306 303 302 301 297 299 297 295 295 293 294 293 291 289 293 294 291 293 292 291 289 289 289
304 304 304 304 304 304 304 304 305 307 307 307 308 308 308 307 306 306 309 307 306 307 306 305 311 310 313 314 307 308 309 306 303 302 300 300 299 298 294 291 292 293 295 295 294 295 295 293 292 293 291 289 289 289
304 304 304 304 304 303 304 304 306 307 307 307 307 308 308 308 307 309 307 309 306 309 307 305 305 309 311 312 312 308 306 304 305 300 300 300 299 299 295 291 294 295 295 296 296 296 292 291 290 291 290 289 290 289
303 304 304 304 303 303 304 304 306 307 307 307 307 308 308 307 306 308 311 307 307 308 308 304 305 307 310 308 308 310 305 303 300 300 300 299 298 297 293 293 295 295 295 295 294 294 292 292 292 290 290 289 287 287
303 304 304 303 303 304 305 305 306 306 306 306 307 309 309 308 310 308 309 309 310 307 302 305 303 301 310 308 309 308 305 297 300 298 299 299 296 293 294 293 294 295 295 294 294 292 291 289 290 289 289 288 287 286
303 304 304 304 304 305 305 306 305 305 306 305 307 308 307 307 306 308 308 305 305 306 305 302 306 304 307 307 306 305 303 298 295 296 299 297 294 296 296 299 299 297 296 295 291 288 288 288 288 288 287 288 288 287
303 303 304 304 304 305 305 305 304 305 305 302 298 298 302 306 308 306 303 304 306 304 306 307 307 306 308 303 303 304 300 299 294 295 295 293 293 295 297 297 297 297 296 295 294 293 291 290 289 289 288 288 288 288
303 303 303 304 304 304 305 304 303 302 301 300 299 301 302 304 305 301 303 304 303 301 304 304 306 307 306 306 303 301 298 298 292 297 294 290 296 297 297 296 296 296 295 294 294 292 291 290 290 290 289 288 288 289
303 303 303 303 304 304 305 303 303 304 303 303 298 297 299 303 294 298 297 300 300 305 306 306 305 306 304 305 301 301 296 295 297 293 292 295 296 296 297 296 295 296 295 294 292 292 291 291 291 291 290 291 291 289
302 302 303 303 303 304 303 303 304 303 300 296 296 289 296 298 301 304 304 305 308 308 307 307 304 305 303 300 298 293 295 296 290 289 291 298 296 296 297 296 295 294 294 293 292 291 291 291 291 291 292 293 292 291
302 303 303 303 304 303 303 303 303 301 298 296 298 290 296 302 305 306 308 307 306 308 305 303 302 302 298 295 295 293 291 288 291 292 296 298 298 297 296 295 295 295 295 293 292 291 291 291 292 292 294 295 294 293
302 302 302 303 302 303 302 303 302 301 299 296 295 296 301 299 303 306 307 305 307 307 306 305 299 297 295 295 292 291 289 289 293 298 299 297 297 297 296 296 296 296 295 293 292 292 292 292 293 294 294 294 293 292
301 299 301 302 302 302 302 301 301 299 297 297 298 303 301 300 299 304 309 309 309 307 303 300 296 294 295 293 291 294 294 297 297 298 297 298 297 297 297 296 296 295 295 294 293 293 293 294 295 294 293 293 293 293
298 300 301 302 302 300 300 301 300 299 296 301 300 302 304 303 303 307 310 310 308 303 300 297 298 294 293 291 294 299 298 297 298 298 297 297 298 297 297 296 296 295 295 294 294 294 294 294 293 294 294 294 293 292
299 301 301 302 300 297 294 299 302 296 300 304 305 306 304 305 308 308 310 310 310 307 300 300 297 294 296 298 300 299 299 298 296 295 296 297 297 296 296 296 295 295 295 294 294 294 294 294 295 295 294 294 292 293
301 301 301 302 302 298 295 298 304 298 297 303 304 303 304 305 307 308 310 309 309 308 304 301 299 301 300 302 302 303 302 299 297 295 294 295 296 296 295 295 294 295 294 295 295 291 294 295 295 295 294 292 292 291
299 300 301 303 302 299 298 298 297 299 301 300 303 301 301 305 306 305 306 308 306 303 302 304 305 306 303 302 302 302 300 300 299 299 296 293 295 295 295 295 295 294 293 293 293 293 291 295 295 294 293 293 293 293
298 300 300 302 299 300 299 302 298 300 298 300 301 303 301 302 303 304 306 303 302 304 306 306 306 304 301 298 299 301 301 301 299 296 294 293 293 293 293 294 293 293 293 294 294 294 295 297 296 294 293 293 291 293
300 299 299 298 295 294 293 303 297 299 297 298 300 299 300 301 304 307 301 303 304 307 307 307 305 301 300 300 299 299 299 299 298 298 296 296 296 296 295 295 294 294 293 294 296 296 296 292 294 294 293 292 293 293
300 295 293 293 294 291 299 298 300 299 299 297 296 295 298 301 306 298 294 298 302 307 305 303 301 298 299 298 298 298 298 300 298 298 298 296 294 295 295 295 296 296 296 297 297 297 298 298 294 294 293 293 292 292
290 290 290 286 294 293 293 295 295 296 293 295 294 296 299 303 295 294 294 299 302 303 305 302 300 298 297 296 295 299 299 300 298 297 297 298 297 296 295 296 297 297 298 297 297 297 297 297 295 295 293 293 292 292
285 290 288 292 293 293 294 292 292 292 293 293 295 299 301 296 291 291 295 300 302 304 305 306 304 301 299 298 298 297 298 300 300 299 298 298 298 296 295 294 295 296 299 299 299 298 296 295 295 294 293 292 287 292
286 289 294 297 295 296 295 296 296 294 293 292 295 295 295 290 290 296 302 302 300 303 306 310 309 306 304 304 305 301 299 300 301 301 303 300 300 301 299 297 297 299 301 300 300 300 297 296 295 295 294 294 293 293
291 292 290 295 295 296 293 293 293 293 294 298 297 292 291 292 293 298 300 303 303 305 308 309 310 308 307 303 300 303 298 299 299 298 300 300 301 301 302 302 303 288 301 302 302 301 299 298 297 296 295 294 294 294
290 294 295 293 293 294 294 294 294 297 299 298 294 293 296 297 298 298 300 301 303 302 301 301 302 308 309 304 302 301 297 298 297 295 295 296 297 298 299 300 300 299 300 299 287 293 298 297 297 297 297 296 296 297
294 297 294 293 291 291 295 297 296 298 300 298 298 299 298 297 300 302 301 300 299 298 300 301 302 302 304 304 304 302 298 298 299 299 297 297 298 302 299 299 299 299 300 300 298 296 285 293 290 296 295 295 295 294
298 296 294 293 293 296 298 299 300 299 299 297 298 296 296 297 300 303 301 301 300 300 299 298 300 301 301 301 302 302 303 300 299 300 301 302 302 301 301 301 301 300 300 299 298 297 296 295 296 296 295 295 295 292
296 294 294 292 295 299 300 299 297 295 295 294 294 296 295 293 292 297 300 301 299 298 295 297 298 299 302 303 303 305 294 306 308 302 301 300 300 300 300 300 299 299 299 298 298 298 298 297 296 296 296 295 295 294
296 296 296 294 294 295 297 297 295 295 295 293 293 294 294 294 290 297 302 303 299 299 299 300 301 302 303 303 304 304 297 306 303 292 290 288 290 293 298 299 299 298 298 297 297 297 297 297 297 296 296 296 295 294
Wind_Speed
23 23 24 24 25 24 24 24 25 25 24 23 21 19 17 14 13 5 2 4 3 2 2 3 4 4 3 3 4 5 3 2 3 4 1 2 2 4 3 3 2 3 2 2 2 3 4 8 2 3 5 4 8 9
22 23 23 24 24 24 24 24 25 25 23 22 21 18 15 13 10 4 1 1 2 2 3 3 5 6 4 4 2 3 3 1 3 2 2 3 3 3 3 3 2 2 4 2 3 4 6 10 11 5 6 7 8 10
24 24 24 24 24 23 23 26 26 26 24 22 20 18 15 12 8 4 2 3 2 2 2 2 2 2 1 4 3 3 2 2 3 3 2 3 5 1 2 3 3 3 3 4 6 5 6 7 6 7 7 7 8 10
23 24 24 24 23 24 25 25 25 25 25 22 20 18 14 10 6 2 2 1 2 0 1 1 4 1 4 3 2 2 5 5 4 1 3 3 3 2 2 3 1 3 0 5 5 6 9 5 8 8 9 9 10 11
22 23 22 22 24 25 25 25 24 24 24 24 22 18 14 8 2 2 2 1 1 3 1 2 5 1 5 5 7 5 6 4 3 3 3 3 3 3 2 2 3 2 3 1 3 5 2 3 6 9 10 11 11 12
22 23 24 24 25 26 26 26 25 25 24 25 23 17 12 4 4 2 2 3 3 1 3 1 2 2 4 5 7 6 5 4 3 3 3 3 3 1 2 2 3 4 5 3 5 3 5 5 5 8 8 10 11 11
23 23 24 25 25 25 25 26 26 26 26 25 22 15 6 6 3 2 3 3 5 2 2 2 2 1 2 1 2 2 3 3 3 3 2 2 2 1 2 2 11 7 7 8 7 6 4 7 4 6 6 8 9 9
23 24 24 25 25 25 23 24 26 27 27 26 19 9 6 10 7 2 2 4 4 2 2 2 2 1 2 1 2 2 2 2 4 3 2 2 3 0 2 6 11 9 8 7 7 8 5 2 2 4 6 7 8 10
23 24 24 25 25 23 22 22 25 28 27 23 8 8 4 2 2 2 10 7 0 3 1 1 2 1 0 2 1 2 1 2 0 2 2 2 2 3 3 13 12 11 6 8 8 8 6 4 3 6 7 8 9 10
23 24 24 24 24 24 22 21 25 28 26 12 2 2 2 2 10 4 4 3 3 3 2 3 1 2 2 1 2 2 1 2 2 3 3 1 1 2 5 9 9 9 7 9 8 6 5 4 3 5 5 7 7 8
24 24 24 25 24 23 21 19 24 26 8 5 6 3 5 9 2 2 2 3 2 3 4 3 6 2 3 2 2 1 2 2 2 3 2 1 2 5 9 10 9 8 7 5 8 9 6 4 5 6 6 7 7 8
24 25 25 25 24 22 17 19 20 8 4 6 5 5 4 3 2 3 3 2 5 4 4 3 3 3 3 1 2 3 1 2 1 4 3 2 2 10 13 13 11 9 9 9 9 8 8 7 8 7 6 7 7 8
25 25 24 24 23 18 15 20 18 15 10 2 3 3 2 2 2 6 7 4 4 5 6 5 4 2 3 2 3 2 3 2 4 3 2 2 7 11 13 12 12 10 10 10 9 9 9 9 7 6 6 5 6 7
26 28 24 24 22 14 21 20 20 10 2 2 3 4 6 5 6 6 5 3 3 4 7 4 4 2 1 3 1 3 3 3 2 3 3 4 11 13 13 12 13 12 11 10 11 10 9 8 7 5 3 3 5 5
26 30 29 16 9 22 23 25 16 3 3 4 3 6 6 4 4 3 4 3 3 4 6 5 4 2 2 3 1 3 4 3 4 3 2 5 13 15 15 13 12 12 11 10 11 10 9 7 5 4 2 2 1 3
25 26 1 10 25 28 27 14 1 2 3 3 5 5 4 3 4 1 2 3 3 4 3 3 3 3 3 2 4 4 3 4 2 2 4 9 13 14 14 13 12 11 11 11 11 10 8 6 4 0 1 2 3 3
22 6 8 22 28 30 16 2 2 4 3 4 4 5 6 6 7 4 2 2 2 2 2 3 5 2 3 2 3 4 4 1 3 4 5 9 14 14 13 13 12 11 11 11 11 9 6 4 2 3 3 5 3 3
6 9 23 27 21 12 3 2 3 3 5 5 5 4 2 4 4 3 2 2 2 2 1 1 4 4 3 4 3 3 3 3 3 5 7 9 11 12 12 13 12 12 11 11 10 8 6 4 3 1 4 5 4 3
16 18 26 26 11 5 4 3 2 4 4 4 5 4 4 5 3 2 3 1 1 2 6 1 2 1 3 3 3 3 5 4 5 5 6 9 11 12 12 12 12 12 11 11 9 6 4 4 1 1 3 3 2 1
25 20 17 13 5 3 4 4 2 4 5 3 4 4 4 4 2 1 2 2 2 3 3 3 4 4 2 3 2 2 6 8 10 9 8 7 8 11 12 11 9 10 9 8 7 4 4 4 3 3 4 3 3 3
11 3 9 2 2 4 3 3 4 3 5 4 4 4 4 2 2 1 1 1 1 2 1 1 1 1 2 3 2 2 9 11 10 7 10 10 9 9 9 8 10 9 9 8 7 6 4 3 3 4 4 4 3 3
4 7 3 2 3 3 4 4 4 4 4 4 5 3 4 3 2 2 1 3 3 3 3 4 4 3 2 2 3 4 9 9 8 8 9 13 11 10 10 9 9 10 9 8 7 6 5 4 4 5 4 4 3 3
7 2 2 3 3 2 5 1 4 3 3 6 5 3 2 4 2 1 4 3 1 3 6 5 4 4 0 3 7 7 8 10 7 7 9 8 8 8 8 9 9 10 9 8 6 5 4 3 4 5 5 5 4 3
3 2 3 2 2 4 3 3 3 4 3 5 3 6 4 2 3 5 2 2 4 5 5 6 2 3 4 3 3 4 5 5 6 7 7 9 9 9 8 8 8 8 8 7 7 5 5 5 4 7 7 7 6 4
3 1 1 4 3 4 4 4 3 2 3 7 3 2 4 4 3 3 2 3 5 7 6 4 3 5 3 2 1 2 5 6 7 8 7 7 8 8 8 7 7 7 6 6 6 5 5 5 5 6 7 8 8 7
3 2 3 2 2 3 3 4 3 4 4 4 4 4 3 3 1 3 3 6 6 7 7 6 2 1 1 3 3 4 5 6 6 5 8 9 10 10 11 10 9 8 8 8 6 7 6 5 5 7 7 9 5 6
3 3 3 4 3 4 4 2 1 2 4 2 3 4 3 2 1 2 2 4 5 7 7 6 4 1 1 3 2 2 5 7 5 3 4 9 8 8 9 10 12 8 9 11 9 8 8 7 6 6 6 6 8 9
3 3 4 3 3 1 3 2 2 2 2 3 4 3 5 3 4 4 3 6 7 8 7 7 4 1 2 5 4 0 4 6 7 6 6 5 4 5 6 5 3 7 6 9 10 8 8 8 7 7 7 6 6 7
4 3 3 4 2 2 2 2 2 2 4 4 3 2 3 4 4 4 4 7 6 6 6 7 8 4 2 6 5 1 3 6 10 10 9 6 6 6 7 6 5 5 5 7 5 6 11 9 9 8 7 5 4 4
3 3 3 2 2 2 1 2 2 3 4 4 3 1 3 2 0 2 4 6 8 7 7 6 6 6 4 4 2 3 3 4 5 4 7 7 7 5 9 9 8 8 7 7 8 7 6 7 6 6 6 5 4 4
3 2 2 1 3 1 1 2 5 5 4 6 7 3 2 2 1 2 4 5 7 7 7 8 7 6 5 4 3 5 4 1 5 7 5 2 3 5 7 8 8 8 8 9 9 9 9 9 9 9 9 8 6 5
2 1 2 3 2 1 1 2 2 3 3 6 7 5 3 2 3 6 6 7 8 8 7 7 8 7 7 7 4 3 6 6 5 3 5 4 3 4 6 7 7 7 8 9 8 8 11 11 9 10 9 10 8 7
4 2 2 2 2 2 2 1 2 4 2 2 5 5 5 4 4 3 3 5 9 8 9 9 8 8 9 9 7 7 6 6 7 4 4 3 7 7 7 7 8 8 10 8 8 8 10 10 9 9 10 9 8 7
Wind_Direction
347 346 346 346 345 343 344 340 339 342 344 343 342 343 344 349 351 4 345 357 349 29 345 340 350 7 15 23 16 358 246 41 24 65 58 101 91 78 99 44 17 29 6 78 119 141 188 15 81 286 20 356 351 342
345 345 345 345 345 344 342 340 339 342 343 340 342 341 341 344 348 19 319 352 334 253 334 303 288 290 273 331 324 31 56 22 28 72 79 115 113 106 140 143 66 174 16 93 15 77 65 59 91 70 15 343 344 331
345 345 344 344 344 341 340 340 337 337 340 339 338 337 336 338 341 343 306 325 258 322 206 253 21 59 194 230 249 333 129 108 98 4 86 86 94 272 131 112 120 89 356 94 170 110 112 97 90 45 13 358 344 338
345 345 344 342 340 340 341 340 336 332 339 338 338 335 334 333 335 314 295 354 306 79 297 104 340 66 338 16 186 271 117 94 96 41 72 72 95 331 85 88 57 19 90 126 99 110 134 109 45 28 6 3 352 344
344 344 343 342 342 341 340 337 332 330 335 337 337 334 329 327 316 234 240 235 263 321 322 300 308 42 347 21 58 102 93 88 44 76 55 72 96 154 83 159 106 344 115 188 93 115 32 65 40 24 6 358 352 345
333 332 333 334 336 338 337 334 329 326 329 332 334 329 325 296 168 239 202 163 210 254 296 265 354 296 9 43 71 65 72 76 66 64 85 99 68 293 120 103 96 100 94 48 119 115 111 71 88 24 6 0 350 353
331 332 333 335 338 338 337 333 327 326 328 330 329 324 311 188 180 322 11 26 168 234 298 299 330 84 339 40 76 74 40 77 58 99 83 102 105 19 114 154 153 143 118 103 93 121 129 62 19 22 12 357 353 358
330 330 332 337 340 338 334 332 325 327 328 328 326 322 133 156 278 192 78 158 172 282 280 295 276 269 3 62 117 12 121 94 40 99 135 115 133 153 153 129 147 147 133 117 98 89 91 89 79 46 23 3 8 10
327 329 332 338 340 335 334 329 328 329 329 328 336 113 136 194 224 66 338 142 280 300 285 235 257 182 96 75 44 136 356 89 104 103 91 213 147 211 150 156 167 167 171 150 133 114 104 68 43 50 33 25 23 16
325 327 330 333 335 334 331 331 337 331 329 328 274 251 198 67 320 296 179 206 197 186 220 249 170 224 227 149 117 185 17 100 153 77 140 42 211 75 159 164 162 166 152 150 156 141 137 107 81 67 51 37 31 23
324 324 327 329 332 330 330 336 343 334 346 14 1 322 333 313 217 212 241 234 154 223 191 230 204 213 176 212 145 338 120 126 194 127 246 187 234 172 154 143 133 127 130 125 104 109 114 124 116 101 79 54 42 36
323 323 324 326 327 324 323 340 344 351 341 301 298 288 283 269 175 234 213 173 215 231 179 196 176 201 137 193 183 162 157 187 201 141 207 228 157 149 152 148 142 141 136 126 122 126 132 125 121 110 88 69 54 48
321 322 322 322 322 317 319 331 333 321 303 240 215 250 224 181 191 218 195 197 214 185 174 172 160 161 148 195 99 179 186 116 140 202 242 222 132 156 155 150 148 142 140 132 128 129 133 131 130 115 100 76 66 55
321 318 320 318 312 317 326 327 325 326 265 248 249 278 208 194 227 210 214 197 180 158 152 144 118 188 122 159 124 178 83 165 196 223 231 156 166 163 159 156 153 155 156 149 144 146 144 142 139 133 96 62 51 57
321 315 317 301 302 333 330 328 320 207 206 236 210 244 228 274 278 281 277 260 177 149 135 126 106 191 122 129 99 118 170 225 228 225 174 136 156 158 159 161 159 159 162 152 153 155 151 151 152 139 108 18 16 53
325 315 295 331 332 331 330 330 31 181 235 235 242 270 261 283 287 291 275 257 151 155 116 97 126 164 159 157 178 200 192 222 195 192 120 139 155 159 160 162 161 161 159 154 161 161 161 169 175 149 6 82 82 74
320 237 308 327 326 322 323 271 239 229 258 250 254 241 267 267 261 273 300 313 103 248 154 138 178 154 117 186 207 189 213 187 151 138 143 157 159 159 158 157 159 162 160 160 164 168 175 174 216 267 236 140 114 117
252 293 312 313 326 318 288 249 266 260 258 251 264 288 234 246 270 276 261 229 178 157 52 213 125 185 195 195 208 201 163 109 81 129 141 146 149 153 157 157 159 162 160 162 166 168 178 199 242 150 168 172 171 156
288 296 303 299 308 305 308 281 248 278 271 285 271 269 261 270 262 263 256 193 45 255 132 83 31 294 224 207 206 154 159 163 148 137 131 144 149 151 154 156 158 161 163 163 166 180 184 201 265 157 155 177 194 153
304 303 288 289 237 234 271 253 223 268 276 314 278 274 274 267 295 254 189 124 168 162 134 159 164 256 300 336 234 145 146 140 138 134 140 148 153 152 158 160 164 163 164 164 170 178 189 212 193 176 178 183 194 175
308 301 331 302 200 224 276 292 258 250 300 292 299 307 284 291 314 346 118 126 191 45 355 335 326 218 133 346 328 140 147 157 162 156 165 159 164 161 158 163 161 168 172 176 183 180 212 220 162 173 173 199 209 220
261 295 286 269 261 216 252 232 265 303 275 281 296 265 282 310 4 48 328 47 58 15 348 313 307 332 300 230 167 175 151 136 120 107 114 130 158 167 169 168 169 174 181 184 190 196 198 191 182 185 188 164 184 179
287 218 248 259 281 260 265 218 267 240 278 311 305 286 43 330 352 8 75 27 20 344 316 303 324 349 100 109 110 125 152 150 142 145 148 153 154 162 166 169 178 177 181 185 193 199 205 159 179 210 179 171 181 179
258 262 278 289 254 273 291 252 228 266 294 325 317 340 349 315 16 49 50 306 316 334 10 20 42 70 74 89 122 156 155 154 128 131 146 149 155 166 172 173 179 187 189 179 186 201 214 222 194 197 190 180 187 199
299 261 233 289 244 270 271 289 288 304 311 326 310 306 347 2 61 11 350 349 5 5 15 42 41 38 42 346 53 131 169 174 160 154 163 168 154 150 166 175 183 190 180 188 187 201 209 194 192 193 188 192 195 201
277 220 203 268 277 249 307 309 344 335 320 331 352 336 356 66 73 42 19 348 347 342 348 3 18 125 153 215 222 183 182 180 172 175 167 174 172 173 173 177 185 196 199 207 206 206 201 192 195 194 198 197 192 206
282 281 219 227 270 285 277 284 318 348 343 360 323 326 340 34 44 51 12 31 323 324 312 305 324 55 295 37 344 206 151 163 158 197 164 182 180 184 179 182 195 200 175 191 196 200 200 197 196 194 197 201 202 209
272 277 272 330 284 246 277 306 300 21 346 3 334 329 337 9 33 353 359 344 330 322 330 340 303 281 61 32 6 244 146 147 116 100 109 137 180 190 203 203 184 140 185 191 190 190 191 190 198 189 186 199 198 202
258 251 261 278 273 260 252 293 357 19 356 320 312 335 45 59 4 349 335 334 331 337 354 353 348 311 60 55 29 147 151 175 165 164 175 174 179 197 195 196 185 181 184 179 182 185 188 186 190 188 182 184 179 181
264 197 268 274 277 269 23 4 13 56 44 22 337 181 101 128 241 320 5 3 4 353 344 338 325 351 16 49 32 67 165 183 217 213 198 192 202 173 172 180 179 174 169 170 168 151 111 152 145 155 165 167 180 182
297 291 267 257 275 296 54 67 94 75 66 32 21 348 86 145 212 336 355 342 344 351 344 343 343 352 346 346 328 18 21 116 227 222 215 217 183 186 188 184 176 169 168 169 169 177 175 181 185 185 188 193 192 213
288 263 284 278 284 42 71 177 132 87 53 35 41 35 32 37 44 349 352 348 337 340 333 322 321 318 315 308 303 254 242 274 280 249 212 212 184 165 158 155 158 160 162 163 170 175 182 182 181 186 189 193 200 212
295 272 240 272 290 319 29 14 94 120 154 96 43 27 17 20 45 318 308 1 348 333 325 315 308 300 295 289 275 272 241 231 240 226 240 203 145 140 140 141 146 148 146 150 157 161 171 180 184 186 189 191 200 214